DLH75 ESSA-EETN

Flight info

Callsign DLH75
Flight time 0h 43m
Altitude 27000
Route TOVRI N851 RIKUM DCT DOBAN
Aircraft A339/H-SADE1E2E3GHIJ3J5M1P2RWXY/LB2D1

Departure

Time 2026-05-05 17:51
Airport Stockholm-Arlanda Airport (ESSA)

Arrival

Time 2026-05-05 18:34
Airport Lennart Meri Tallinn Airport (EETN)
Time Latitude Longitude Altitude Speed Heading
2026-05-05 17:33 59.64735 17.92508 126 ft 0 kts 38°
2026-05-05 17:39 59.64733 17.92506 126 ft 1 kts 38°
2026-05-05 17:40 59.64722 17.92489 126 ft 2 kts 34°
2026-05-05 17:40 59.64709 17.92472 126 ft 2 kts 35°
2026-05-05 17:40 59.64697 17.92454 126 ft 2 kts 37°
2026-05-05 17:40 59.64688 17.92441 125 ft 0 kts 39°
2026-05-05 17:41 59.64677 17.92427 125 ft 2 kts
2026-05-05 17:41 59.64664 17.92429 126 ft 2 kts 334°
2026-05-05 17:41 59.64652 17.92447 126 ft 2 kts 301°
2026-05-05 17:41 59.64649 17.92460 126 ft 1 kts 284°
2026-05-05 17:42 59.64648 17.92468 126 ft 0 kts 285°
2026-05-05 17:44 59.64652 17.92444 126 ft 7 kts 285°
2026-05-05 17:45 59.64670 17.92312 123 ft 12 kts 284°
2026-05-05 17:45 59.64646 17.92206 121 ft 8 kts 194°
2026-05-05 17:45 59.64604 17.92183 121 ft 6 kts 197°
2026-05-05 17:45 59.64542 17.92150 123 ft 12 kts 193°
2026-05-05 17:46 59.64440 17.92106 122 ft 15 kts 191°
2026-05-05 17:46 59.64342 17.92019 123 ft 15 kts 219°
2026-05-05 17:46 59.64274 17.91919 125 ft 10 kts 203°
2026-05-05 17:46 59.64215 17.91869 126 ft 8 kts 196°
2026-05-05 17:47 59.64111 17.91824 126 ft 19 kts 190°
2026-05-05 17:47 59.63972 17.91773 124 ft 15 kts 191°
2026-05-05 17:47 59.63873 17.91727 122 ft 16 kts 202°
2026-05-05 17:47 59.63766 17.91596 119 ft 18 kts 217°
2026-05-05 17:48 59.63733 17.91458 121 ft 9 kts 263°
2026-05-05 17:48 59.63753 17.91355 122 ft 7 kts 320°
2026-05-05 17:48 59.63797 17.91334 123 ft 6 kts 11°
2026-05-05 17:48 59.63833 17.91352 123 ft 0 kts 13°
2026-05-05 17:49 59.63846 17.91358 123 ft 3 kts 13°
2026-05-05 17:49 59.63847 17.91359 123 ft 0 kts 13°
2026-05-05 17:50 59.63851 17.91361 123 ft 7 kts 13°
2026-05-05 17:50 59.64120 17.91466 125 ft 68 kts
2026-05-05 17:50 59.64815 17.91705 117 ft 131 kts 12°
2026-05-05 17:50 59.65837 17.92080 338 ft 160 kts
2026-05-05 17:51 59.66902 17.92468 1024 ft 156 kts
2026-05-05 17:51 59.67937 17.92865 1730 ft 154 kts
2026-05-05 17:51 59.68969 17.93231 2368 ft 155 kts
2026-05-05 17:51 59.70084 17.93624 2796 ft 171 kts
2026-05-05 17:52 59.71302 17.94057 3210 ft 188 kts
2026-05-05 17:52 59.72649 17.94542 3629 ft 206 kts
2026-05-05 17:52 59.74090 17.95115 4166 ft 221 kts 17°
2026-05-05 17:52 59.75373 17.96925 4628 ft 244 kts 54°
2026-05-05 17:53 59.75914 18.00254 5116 ft 267 kts 89°
2026-05-05 17:53 59.75715 18.03986 5677 ft 281 kts 96°
2026-05-05 17:53 59.75514 18.07881 6357 ft 290 kts 94°
2026-05-05 17:53 59.75371 18.11807 7311 ft 288 kts 92°
2026-05-05 17:54 59.75274 18.15760 8164 ft 290 kts 90°
2026-05-05 17:54 59.75309 18.19721 8924 ft 293 kts 80°
2026-05-05 17:54 59.75872 18.23620 9689 ft 296 kts 66°
2026-05-05 17:54 59.76642 18.27362 10351 ft 302 kts 65°
2026-05-05 17:55 59.77477 18.31349 10771 ft 320 kts 65°
2026-05-05 17:55 59.78311 18.35505 11118 ft 338 kts 66°
2026-05-05 17:55 59.79178 18.40014 11483 ft 357 kts 67°
2026-05-05 17:55 59.80054 18.44700 11785 ft 371 kts 67°
2026-05-05 17:56 59.80943 18.49545 11854 ft 372 kts 67°
2026-05-05 17:56 59.81807 18.54311 11857 ft 372 kts 68°
2026-05-05 17:56 59.82679 18.59142 11861 ft 372 kts 68°
2026-05-05 17:56 59.83543 18.63952 11866 ft 372 kts 67°
2026-05-05 17:57 59.84411 18.68794 11879 ft 374 kts 68°
2026-05-05 17:57 59.85288 18.73690 12329 ft 382 kts 68°
2026-05-05 17:57 59.86176 18.78661 13174 ft 384 kts 68°
2026-05-05 17:57 59.87069 18.83671 13849 ft 390 kts 68°
2026-05-05 17:58 59.87974 18.88768 14484 ft 398 kts 68°
2026-05-05 17:58 59.88908 18.94039 15061 ft 405 kts 68°
2026-05-05 17:58 59.89843 18.99329 15553 ft 415 kts 69°
2026-05-05 17:58 59.90802 19.04763 16104 ft 424 kts 69°
2026-05-05 17:59 59.91782 19.10356 16650 ft 432 kts 69°
2026-05-05 17:59 59.92772 19.16036 17177 ft 440 kts 69°
2026-05-05 17:59 59.93774 19.21794 17649 ft 449 kts 69°
2026-05-05 17:59 59.94805 19.27731 18113 ft 458 kts 69°
2026-05-05 18:00 59.95855 19.33792 18586 ft 466 kts 70°
2026-05-05 18:00 59.96722 19.39995 19106 ft 474 kts 79°
2026-05-05 18:00 59.97098 19.46584 19723 ft 477 kts 91°
2026-05-05 18:00 59.97066 19.53099 20395 ft 478 kts 95°
2026-05-05 18:01 59.96928 19.59751 21027 ft 481 kts 96°
2026-05-05 18:01 59.96767 19.66390 21641 ft 484 kts 97°
2026-05-05 18:01 59.96617 19.73032 22225 ft 487 kts 97°
2026-05-05 18:01 59.96474 19.79826 22803 ft 490 kts 96°
2026-05-05 18:02 59.96337 19.86551 23312 ft 494 kts 96°
2026-05-05 18:02 59.96203 19.93452 23864 ft 497 kts 96°
2026-05-05 18:02 59.96070 20.00308 24370 ft 500 kts 96°
2026-05-05 18:02 59.95938 20.07200 24871 ft 503 kts 96°
2026-05-05 18:03 59.95799 20.14192 25346 ft 506 kts 96°
2026-05-05 18:03 59.95656 20.21153 25855 ft 508 kts 96°
2026-05-05 18:03 59.95506 20.28201 26304 ft 512 kts 96°
2026-05-05 18:03 59.95353 20.35316 26710 ft 516 kts 96°
2026-05-05 18:04 59.95192 20.42416 26877 ft 518 kts 96°
2026-05-05 18:04 59.95031 20.49620 26879 ft 517 kts 96°
2026-05-05 18:04 59.94865 20.56742 26876 ft 528 kts 96°
2026-05-05 18:04 59.94687 20.64140 26873 ft 531 kts 96°
2026-05-05 18:05 59.94511 20.71451 26870 ft 532 kts 97°
2026-05-05 18:05 59.94330 20.78776 26870 ft 533 kts 97°
2026-05-05 18:05 59.94144 20.86152 26871 ft 532 kts 97°
2026-05-05 18:05 59.93955 20.93488 26869 ft 531 kts 97°
2026-05-05 18:06 59.93759 21.00796 26869 ft 531 kts 97°
2026-05-05 18:06 59.93629 21.05662 26870 ft 531 kts 97°
2026-05-05 18:06 59.93358 21.15477 26874 ft 531 kts 97°
2026-05-05 18:06 59.93087 21.22697 26866 ft 528 kts 103°
2026-05-05 18:07 59.92269 21.29701 26870 ft 517 kts 114°
2026-05-05 18:07 59.91047 21.36430 26877 ft 514 kts 117°
2026-05-05 18:07 59.89739 21.43034 26876 ft 514 kts 118°
2026-05-05 18:07 59.88422 21.49547 26875 ft 514 kts 118°
2026-05-05 18:08 59.87077 21.56155 26874 ft 514 kts 118°
2026-05-05 18:08 59.85759 21.62651 26874 ft 513 kts 118°
2026-05-05 18:08 59.84420 21.69244 26872 ft 512 kts 119°
2026-05-05 18:08 59.83098 21.75752 26873 ft 513 kts 119°
2026-05-05 18:09 59.81760 21.82283 26875 ft 513 kts 119°
2026-05-05 18:09 59.80422 21.88829 26874 ft 513 kts 118°
2026-05-05 18:09 59.79397 21.95618 26768 ft 518 kts 107°
2026-05-05 18:09 59.78965 22.02640 25870 ft 516 kts 95°
2026-05-05 18:10 59.79161 22.09726 24319 ft 523 kts 83°
2026-05-05 18:10 59.79987 22.16655 22421 ft 533 kts 72°
2026-05-05 18:10 59.81203 22.23551 21166 ft 522 kts 69°
2026-05-05 18:10 59.82420 22.30111 20403 ft 503 kts 70°
2026-05-05 18:11 59.83606 22.36535 19649 ft 485 kts 69°
2026-05-05 18:11 59.84734 22.42649 19076 ft 473 kts 69°
2026-05-05 18:11 59.85852 22.48720 18750 ft 457 kts 69°
2026-05-05 18:11 59.86918 22.54519 18288 ft 447 kts 69°
2026-05-05 18:12 59.87979 22.60294 18165 ft 437 kts 69°
2026-05-05 18:12 59.89003 22.65879 18023 ft 428 kts 70°
2026-05-05 18:12 59.90013 22.71390 17866 ft 419 kts 70°
2026-05-05 18:12 59.90997 22.76764 17707 ft 411 kts 70°
2026-05-05 18:13 59.91954 22.82005 17263 ft 401 kts 69°
2026-05-05 18:13 59.92894 22.87151 16746 ft 391 kts 69°
2026-05-05 18:13 59.93813 22.92190 16441 ft 384 kts 69°
2026-05-05 18:13 59.94712 22.97120 16285 ft 377 kts 69°
2026-05-05 18:14 59.95602 23.02009 16117 ft 371 kts 69°
2026-05-05 18:14 59.96378 23.06874 15730 ft 372 kts 82°
2026-05-05 18:14 59.96289 23.11989 15055 ft 374 kts 110°
2026-05-05 18:14 59.95294 23.16643 14467 ft 372 kts 123°
2026-05-05 18:15 59.94188 23.21327 14072 ft 375 kts 118°
2026-05-05 18:15 59.93254 23.26192 13781 ft 374 kts 112°
2026-05-05 18:15 59.92510 23.31055 13516 ft 371 kts 109°
2026-05-05 18:15 59.91871 23.36016 13236 ft 369 kts 106°
2026-05-05 18:16 59.91302 23.40941 12950 ft 365 kts 105°
2026-05-05 18:16 59.90762 23.45900 12654 ft 362 kts 104°
2026-05-05 18:16 59.90251 23.50709 12399 ft 358 kts 103°
2026-05-05 18:16 59.89739 23.55556 12114 ft 355 kts 103°
2026-05-05 18:17 59.89238 23.60308 11827 ft 352 kts 103°
2026-05-05 18:17 59.88736 23.65051 11543 ft 348 kts 103°
2026-05-05 18:17 59.88244 23.69697 11248 ft 345 kts 103°
2026-05-05 18:17 59.87746 23.74341 10990 ft 341 kts 103°
2026-05-05 18:18 59.87253 23.78945 10721 ft 337 kts 102°
2026-05-05 18:18 59.86772 23.83414 10463 ft 332 kts 102°
2026-05-05 18:18 59.86288 23.87902 10181 ft 329 kts 102°
2026-05-05 18:18 59.85819 23.92259 10020 ft 322 kts 102°
2026-05-05 18:19 59.85354 23.96566 9875 ft 314 kts 102°
2026-05-05 18:19 59.84901 24.00723 9838 ft 304 kts 101°
2026-05-05 18:19 59.84454 24.04839 9832 ft 306 kts 102°
2026-05-05 18:19 59.84005 24.08937 9830 ft 306 kts 102°
2026-05-05 18:20 59.83550 24.13087 9828 ft 306 kts 102°
2026-05-05 18:20 59.83100 24.17170 9828 ft 306 kts 102°
2026-05-05 18:20 59.82643 24.21303 9823 ft 308 kts 102°
2026-05-05 18:20 59.82180 24.25483 9828 ft 309 kts 102°
2026-05-05 18:21 59.81715 24.29635 9824 ft 308 kts 102°
2026-05-05 18:21 59.81226 24.33740 9825 ft 309 kts 109°
2026-05-05 18:21 59.80235 24.37513 9824 ft 306 kts 126°
2026-05-05 18:21 59.78992 24.40875 9708 ft 302 kts 129°
2026-05-05 18:22 59.77729 24.44162 9090 ft 301 kts 129°
2026-05-05 18:22 59.76488 24.47464 8490 ft 299 kts 127°
2026-05-05 18:22 59.75288 24.50766 7915 ft 295 kts 126°
2026-05-05 18:22 59.74117 24.54052 7349 ft 292 kts 125°
2026-05-05 18:23 59.72974 24.57299 6800 ft 288 kts 124°
2026-05-05 18:23 59.71850 24.60520 6252 ft 284 kts 124°
2026-05-05 18:23 59.70729 24.63744 5667 ft 282 kts 124°
2026-05-05 18:23 59.69641 24.66878 5159 ft 278 kts 124°
2026-05-05 18:24 59.68550 24.70012 4995 ft 278 kts 124°
2026-05-05 18:24 59.67440 24.73202 4985 ft 281 kts 124°
2026-05-05 18:24 59.66337 24.76368 4984 ft 283 kts 124°
2026-05-05 18:24 59.65230 24.79538 4994 ft 282 kts 124°
2026-05-05 18:25 59.64111 24.82736 4974 ft 282 kts 124°
2026-05-05 18:25 59.63366 24.84864 4969 ft 282 kts 124°
2026-05-05 18:25 59.61888 24.89078 4981 ft 282 kts 124°
2026-05-05 18:25 59.60784 24.92225 4974 ft 281 kts 124°
2026-05-05 18:26 59.59667 24.95404 4982 ft 282 kts 124°
2026-05-05 18:26 59.58553 24.98569 4974 ft 282 kts 124°
2026-05-05 18:26 59.57434 25.01740 4968 ft 275 kts 124°
2026-05-05 18:26 59.56371 25.04752 4972 ft 264 kts 125°
2026-05-05 18:27 59.55334 25.07683 4971 ft 260 kts 125°
2026-05-05 18:27 59.54306 25.10586 4975 ft 261 kts 125°
2026-05-05 18:27 59.53278 25.13488 4757 ft 258 kts 125°
2026-05-05 18:27 59.52242 25.16403 4292 ft 257 kts 125°
2026-05-05 18:28 59.50230 25.21901 3605 ft 247 kts 136°
2026-05-05 18:28 59.48781 25.23625 3160 ft 241 kts 169°
2026-05-05 18:28 59.47166 25.24003 2758 ft 235 kts 183°
2026-05-05 18:29 59.45534 25.24139 2465 ft 236 kts 180°
2026-05-05 18:29 59.43900 25.24349 2282 ft 235 kts 180°
2026-05-05 18:29 59.42325 25.24080 2188 ft 220 kts 208°
2026-05-05 18:29 59.41200 25.22354 2179 ft 197 kts 244°
2026-05-05 18:30 59.40873 25.19902 2196 ft 186 kts 274°
2026-05-05 18:30 59.40980 25.17388 2197 ft 184 kts 278°
2026-05-05 18:30 59.41104 25.14972 2177 ft 173 kts 278°
2026-05-05 18:30 59.41215 25.12658 2175 ft 165 kts 276°
2026-05-05 18:31 59.41270 25.10416 2181 ft 166 kts 274°
2026-05-05 18:31 59.41289 25.08162 2208 ft 166 kts 273°
2026-05-05 18:31 59.41293 25.05877 2136 ft 166 kts 273°
2026-05-05 18:31 59.41291 25.03674 1888 ft 158 kts 273°
2026-05-05 18:32 59.41290 25.01582 1675 ft 150 kts 272°
2026-05-05 18:32 59.41291 24.99581 1479 ft 142 kts 272°
2026-05-05 18:32 59.41294 24.97692 1290 ft 135 kts 272°
2026-05-05 18:32 59.41298 24.95903 1085 ft 129 kts 273°
2026-05-05 18:33 59.41302 24.94196 874 ft 124 kts 272°
2026-05-05 18:33 59.41302 24.92488 716 ft 125 kts 271°
2026-05-05 18:33 59.41312 24.90774 584 ft 125 kts 271°
2026-05-05 18:33 59.41314 24.89059 424 ft 125 kts 271°
2026-05-05 18:34 59.41316 24.87368 256 ft 124 kts 271°
2026-05-05 18:34 59.41321 24.85695 158 ft 113 kts 270°
2026-05-05 18:34 59.41326 24.84692 160 ft 52 kts 271°
2026-05-05 18:34 59.41322 24.84005 161 ft 48 kts 270°
2026-05-05 18:35 59.41326 24.83357 160 ft 45 kts 270°
2026-05-05 18:35 59.41341 24.82847 157 ft 32 kts 282°
2026-05-05 18:35 59.41429 24.82488 157 ft 26 kts 295°
2026-05-05 18:35 59.41494 24.82171 157 ft 24 kts 281°
2026-05-05 18:36 59.41501 24.81848 157 ft 22 kts 271°
2026-05-05 18:36 59.41502 24.81545 157 ft 21 kts 271°
2026-05-05 18:36 59.41506 24.81317 161 ft 10 kts 278°
2026-05-05 18:36 59.41546 24.81215 162 ft 9 kts 341°
2026-05-05 18:37 59.41601 24.81199 165 ft 7 kts 350°
2026-05-05 18:37 59.41638 24.81169 166 ft 3 kts 323°
2026-05-05 18:37 59.41657 24.81123 167 ft 4 kts 303°
2026-05-05 18:37 59.41667 24.81056 167 ft 5 kts 262°
2026-05-05 18:38 59.41638 24.81010 167 ft 7 kts 192°
2026-05-05 18:38 59.41590 24.81012 166 ft 3 kts 183°
2026-05-05 18:38 59.41589 24.81012 166 ft 0 kts 183°